Time[GMT],current_speed[cm/s](2m),current_direction[angular_degrees](2m),current_u[cm/s](2m),current_v[cm/s](2m)
2011-03-09 20:00,6.66,84.5,6.63,0.64
2011-03-09 21:00,7.48,108.0,7.12,-2.31
2011-03-09 22:00,6.58,119.5,5.73,-3.25
2011-03-09 23:00,1.98,96.0,1.97,-0.21
2011-03-10 00:00,7.33,116.8,6.54,-3.30
2011-03-10 01:00,12.72,49.4,9.65,8.28
2011-03-10 02:00,22.50,47.5,16.58,15.21
2011-03-10 03:00,37.00,48.1,27.56,24.69
2011-03-10 04:00,44.32,45.9,31.82,30.85
2011-03-10 05:00,43.56,45.3,30.99,30.61
2011-03-10 06:00,32.32,52.0,25.46,19.92
2011-03-10 07:00,25.31,51.5,19.80,15.77
2011-03-10 08:00,12.82,64.4,11.56,5.54
2011-03-10 09:00,4.49,119.4,3.91,-2.21
2011-03-10 10:00,4.00,213.0,-2.18,-3.35
2011-03-10 11:00,2.66,189.4,-0.44,-2.62
2011-03-10 12:00,4.61,77.6,4.51,0.99
2011-03-10 13:00,13.41,37.3,8.12,10.67
2011-03-10 14:00,5.27,58.6,4.50,2.74
2011-03-10 15:00,12.95,6.8,1.54,12.86
2011-03-10 16:00,32.40,45.5,23.13,22.69
2011-03-10 17:00,40.22,43.5,27.70,29.16
2011-03-10 18:00,30.57,41.3,20.15,22.98
2011-03-10 19:00,24.41,48.7,18.33,16.12
2011-03-10 20:00,12.75,36.6,7.59,10.24
2011-03-10 21:00,4.02,359.8,-0.02,4.02
2011-03-10 22:00,8.36,241.7,-7.36,-3.96
2011-03-10 23:00,17.86,210.7,-9.11,-15.36
2011-03-11 00:00,9.17,215.8,-5.36,-7.45
2011-03-11 01:00,11.09,244.3,-9.99,-4.81
2011-03-11 02:00,3.79,285.8,-3.65,1.03
2011-03-11 03:00,10.29,6.6,1.19,10.22
2011-03-11 04:00,17.37,15.6,4.66,16.73
2011-03-11 05:00,20.73,43.6,14.29,15.02
2011-03-11 06:00,16.86,22.1,6.33,15.63
2011-03-11 07:00,12.39,19.4,4.11,11.69
2011-03-11 08:00,7.73,47.3,5.68,5.25
2011-03-11 09:00,6.67,305.6,-5.43,3.88
2011-03-11 10:00,10.93,253.1,-10.46,-3.18
2011-03-11 11:00,12.78,238.4,-10.88,-6.70
2011-03-11 12:00,14.36,230.3,-11.05,-9.17
2011-03-11 13:00,6.54,247.8,-6.05,-2.47
2011-03-11 14:00,3.00,332.7,-1.38,2.66
2011-03-11 15:00,7.42,93.7,7.41,-0.48
2011-03-11 16:00,12.88,32.3,6.88,10.89
2011-03-11 17:00,24.99,31.9,13.20,21.22
2011-03-11 18:00,28.18,40.1,18.14,21.56
2011-03-11 19:00,34.24,43.0,23.34,25.05
2011-03-11 20:00,31.00,48.5,23.22,20.55
2011-03-11 21:00,19.96,54.7,16.29,11.52
2011-03-11 22:00,13.42,60.9,11.72,6.53
2011-03-11 23:00,5.71,166.9,1.29,-5.56
2011-03-12 00:00,5.12,72.0,4.87,1.58
2011-03-12 01:00,4.15,91.6,4.15,-0.11
2011-03-12 02:00,10.96,46.8,7.99,7.49
2011-03-12 03:00,15.76,51.3,12.30,9.86
2011-03-12 04:00,15.80,40.5,10.26,12.02
2011-03-12 05:00,23.31,37.4,14.16,18.51
2011-03-12 06:00,29.62,44.5,20.76,21.14
2011-03-12 07:00,32.84,53.3,26.33,19.62
2011-03-12 08:00,29.93,53.6,24.11,17.74
2011-03-12 09:00,21.23,56.9,17.79,11.58
2011-03-12 10:00,9.54,87.0,9.53,0.49
2011-03-12 11:00,7.39,220.9,-4.84,-5.58
2011-03-12 12:00,0.90,291.9,-0.83,0.34
2011-03-12 13:00,11.21,242.4,-9.93,-5.19
2011-03-12 14:00,0.53,84.0,0.53,0.06
2011-03-12 15:00,5.12,51.2,3.99,3.21
2011-03-12 16:00,10.09,55.1,8.28,5.77
2011-03-12 17:00,18.29,49.0,13.81,12.00
2011-03-12 18:00,27.62,55.0,22.62,15.84
2011-03-12 19:00,31.21,47.3,22.92,21.19
2011-03-12 20:00,36.93,52.9,29.43,22.30
2011-03-12 21:00,25.67,60.9,22.42,12.49
2011-03-12 22:00,8.04,106.3,7.72,-2.26
2011-03-12 23:00,9.10,194.7,-2.31,-8.80
2011-03-13 00:00,14.97,278.5,-14.81,2.20
2011-03-13 01:00,12.28,231.3,-9.59,-7.67
2011-03-13 02:00,5.42,150.4,2.68,-4.71
2011-03-13 03:00,4.31,116.5,3.86,-1.92
2011-03-13 04:00,2.96,58.2,2.52,1.56
2011-03-13 05:00,12.14,32.2,6.47,10.27
2011-03-13 06:00,17.71,27.5,8.17,15.71
2011-03-13 07:00,20.43,37.7,12.48,16.18
2011-03-13 08:00,19.10,42.9,12.99,14.00
2011-03-13 09:00,13.68,66.5,12.55,5.46
2011-03-13 10:00,1.96,334.3,-0.85,1.77
2011-03-13 11:00,17.93,251.1,-16.96,-5.82
2011-03-13 12:00,16.98,213.9,-9.48,-14.09
2011-03-13 13:00,17.81,224.1,-12.39,-12.79
2011-03-13 14:00,13.18,212.8,-7.14,-11.08
2011-03-13 15:00,9.21,206.4,-4.10,-8.24
2011-03-13 16:00,23.85,207.4,-10.99,-21.17
2011-03-13 17:00,14.32,247.2,-13.20,-5.55
2011-03-13 18:00,17.91,16.6,5.12,17.17
2011-03-13 19:00,17.84,26.2,7.87,16.01
2011-03-13 20:00,17.27,40.5,11.22,13.13
2011-03-13 21:00,11.13,38.2,6.88,8.74
2011-03-13 22:00,3.45,281.6,-3.38,0.70
2011-03-13 23:00,7.55,205.7,-3.28,-6.80
2011-03-14 00:00,14.70,229.1,-11.11,-9.62
2011-03-14 01:00,22.53,216.3,-13.33,-18.17
2011-03-14 02:00,18.35,207.6,-8.50,-16.27
2011-03-14 03:00,15.43,206.3,-6.85,-13.83
2011-03-14 04:00,13.59,197.2,-4.02,-12.98
2011-03-14 05:00,9.50,229.4,-7.21,-6.18
2011-03-14 06:00,8.25,253.7,-7.92,-2.32
2011-03-14 07:00,3.92,12.8,0.87,3.82
2011-03-14 08:00,8.07,344.6,-2.14,7.78
2011-03-14 09:00,11.84,221.0,-7.76,-8.94
2011-03-14 10:00,17.47,233.9,-14.13,-10.28
2011-03-14 11:00,23.57,228.3,-17.59,-15.69
2011-03-14 12:00,28.70,208.5,-13.68,-25.22
2011-03-14 13:00,22.97,204.2,-9.40,-20.96
2011-03-14 14:00,30.54,213.1,-16.67,-25.59
2011-03-14 15:00,31.53,218.3,-19.53,-24.75
2011-03-14 16:00,19.22,203.0,-7.51,-17.69
2011-03-14 17:00,27.99,202.4,-10.67,-25.88
2011-03-14 18:00,18.29,218.7,-11.43,-14.27
2011-03-14 19:00,8.01,265.1,-7.98,-0.68
2011-03-14 20:00,4.84,326.7,-2.65,4.05
2011-03-14 21:00,29.77,51.3,23.23,18.62
2011-03-14 22:00,36.89,48.7,27.71,24.35
2011-03-14 23:00,39.04,39.9,25.02,29.97
2011-03-15 00:00,24.65,55.3,20.26,14.05
2011-03-15 01:00,13.46,74.6,12.97,3.59
2011-03-15 02:00,3.40,38.6,2.12,2.66
2011-03-15 03:00,1.26,351.8,-0.18,1.25
2011-03-15 04:00,7.90,25.8,3.43,7.11
2011-03-15 05:00,6.15,69.2,5.74,2.19
2011-03-15 06:00,9.34,52.0,7.36,5.75
2011-03-15 07:00,19.16,25.5,8.24,17.30
2011-03-15 08:00,18.07,25.9,7.89,16.25
2011-03-15 09:00,21.89,17.2,6.47,20.91
2011-03-15 10:00,19.65,36.7,11.74,15.76
2011-03-15 11:00,18.91,57.9,16.02,10.05
2011-03-15 12:00,8.37,355.0,-0.74,8.34
2011-03-15 13:00,8.24,272.0,-8.24,0.29
2011-03-15 14:00,12.07,226.4,-8.74,-8.33
2011-03-15 15:00,16.85,222.0,-11.27,-12.53
2011-03-15 16:00,6.85,91.1,6.85,-0.13
2011-03-15 17:00,6.71,111.0,6.27,-2.40
2011-03-15 18:00,3.27,45.9,2.35,2.28
2011-03-15 19:00,20.85,31.6,10.92,17.76
2011-03-15 20:00,37.45,46.6,27.20,25.75
2011-03-15 21:00,42.10,41.2,27.74,31.66
2011-03-15 22:00,47.43,45.7,33.95,33.12
2011-03-15 23:00,44.61,53.5,35.84,26.56
2011-03-16 00:00,35.91,53.7,28.96,21.24
2011-03-16 01:00,25.74,49.7,19.64,16.64
2011-03-16 02:00,20.06,40.2,12.96,15.31
2011-03-16 03:00,7.11,280.1,-7.00,1.25
2011-03-16 04:00,16.94,248.8,-15.79,-6.11
2011-03-16 05:00,8.20,246.3,-7.51,-3.30
2011-03-16 06:00,1.76,184.9,-0.15,-1.75
2011-03-16 07:00,5.47,51.5,4.28,3.41
2011-03-16 08:00,12.74,47.8,9.44,8.56
2011-03-16 09:00,21.07,54.5,17.15,12.24
2011-03-16 10:00,28.93,46.2,20.87,20.04
2011-03-16 11:00,29.11,46.1,20.99,20.17
2011-03-16 12:00,25.95,55.0,21.26,14.88
2011-03-16 13:00,9.19,79.3,9.03,1.71
2011-03-16 14:00,4.66,331.1,-2.25,4.08
2011-03-16 15:00,10.39,209.2,-5.07,-9.08
2011-03-16 16:00,24.39,222.2,-16.38,-18.08
2011-03-16 17:00,18.66,209.3,-9.13,-16.28
2011-03-16 18:00,17.00,222.8,-11.55,-12.47
2011-03-16 19:00,14.58,224.3,-10.19,-10.42
2011-03-16 20:00,11.20,257.9,-10.95,-2.35
2011-03-16 21:00,7.87,350.7,-1.27,7.77
2011-03-16 22:00,16.49,12.9,3.68,16.08
2011-03-16 23:00,11.63,17.8,3.56,11.07
2011-03-17 00:00,19.48,56.4,16.22,10.78
2011-03-17 01:00,3.81,252.7,-3.64,-1.13
2011-03-17 02:00,3.62,274.8,-3.60,0.30
2011-03-17 03:00,17.41,216.4,-10.32,-14.02
2011-03-17 04:00,28.91,218.2,-17.89,-22.71
2011-03-17 05:00,24.06,219.2,-15.22,-18.64
2011-03-17 06:00,13.94,218.7,-8.71,-10.88
2011-03-17 07:00,7.27,156.0,2.95,-6.64
2011-03-17 08:00,16.76,208.8,-8.07,-14.69
2011-03-17 09:00,11.92,17.8,3.65,11.35
2011-03-17 10:00,21.21,32.8,11.50,17.82
2011-03-17 11:00,36.23,44.3,25.30,25.93
2011-03-17 12:00,32.61,38.2,20.19,25.61
2011-03-17 13:00,33.60,46.5,24.39,23.12
2011-03-17 14:00,23.04,56.4,19.19,12.74
2011-03-17 15:00,2.64,31.5,1.38,2.25
2011-03-17 16:00,28.32,241.9,-24.99,-13.32
2011-03-17 17:00,19.11,201.9,-7.14,-17.72
2011-03-17 18:00,11.68,195.2,-3.07,-11.27
2011-03-17 19:00,3.16,55.3,2.59,1.80
2011-03-17 20:00,8.35,80.5,8.23,1.38
2011-03-17 21:00,18.19,31.2,9.41,15.56
2011-03-17 22:00,24.14,34.5,13.66,19.90
2011-03-17 23:00,38.55,46.6,28.02,26.48
2011-03-18 00:00,32.49,43.8,22.49,23.44
2011-03-18 01:00,35.95,40.1,23.17,27.49
2011-03-18 02:00,27.27,45.8,19.54,19.03
2011-03-18 03:00,14.12,22.4,5.38,13.05
2011-03-18 04:00,10.85,238.2,-9.23,-5.72
2011-03-18 05:00,9.93,204.9,-4.18,-9.00
2011-03-18 06:00,8.11,237.7,-6.86,-4.33
2011-03-18 07:00,0.70,230.5,-0.54,-0.45
2011-03-18 08:00,13.33,41.7,8.87,9.95
2011-03-18 09:00,8.96,20.7,3.16,8.39
2011-03-18 10:00,36.94,51.5,28.91,22.99
2011-03-18 11:00,42.82,42.1,28.72,31.75
2011-03-18 12:00,50.87,44.7,35.79,36.15
2011-03-18 13:00,44.22,41.4,29.21,33.19
2011-03-18 14:00,37.59,56.0,31.17,21.02
2011-03-18 15:00,23.12,58.4,19.69,12.12
2011-03-18 16:00,14.28,30.4,7.23,12.32
2011-03-18 17:00,12.49,250.2,-11.75,-4.22
2011-03-18 18:00,17.81,206.2,-7.85,-15.99
2011-03-18 19:00,18.70,208.3,-8.86,-16.47
2011-03-18 20:00,25.52,212.5,-13.73,-21.51
2011-03-18 21:00,13.87,217.2,-8.39,-11.04
2011-03-18 22:00,3.48,14.0,0.84,3.38
2011-03-18 23:00,15.24,33.9,8.50,12.65
2011-03-19 00:00,16.82,23.1,6.59,15.47
2011-03-19 01:00,8.77,22.7,3.38,8.09
2011-03-19 02:00,5.65,64.0,5.08,2.48
2011-03-19 03:00,4.66,213.3,-2.56,-3.89
2011-03-19 04:00,16.45,228.8,-12.38,-10.83
2011-03-19 05:00,29.34,213.4,-16.16,-24.49
2011-03-19 06:00,40.22,226.1,-28.95,-27.91
2011-03-19 07:00,35.02,231.0,-27.23,-22.03
2011-03-19 08:00,28.86,234.8,-23.59,-16.63
2011-03-19 09:00,21.21,210.6,-10.80,-18.26
2011-03-19 10:00,16.67,229.1,-12.61,-10.91
2011-03-19 11:00,4.81,302.0,-4.08,2.55
2011-03-19 12:00,17.95,31.5,9.39,15.30
2011-03-19 13:00,28.44,31.9,15.04,24.13
2011-03-19 14:00,47.99,36.0,28.20,38.83
2011-03-19 15:00,27.03,49.5,20.57,17.54
2011-03-19 16:00,14.20,40.1,9.15,10.86
2011-03-19 17:00,6.97,249.9,-6.55,-2.39
2011-03-19 18:00,18.06,202.6,-6.95,-16.67
2011-03-19 19:00,33.64,213.8,-18.71,-27.95
2011-03-19 20:00,48.76,212.4,-26.14,-41.17
2011-03-19 21:00,33.60,217.4,-20.41,-26.69
2011-03-19 22:00,11.19,180.4,-0.07,-11.19
2011-03-19 23:00,7.74,281.0,-7.60,1.47
2011-03-20 00:00,19.78,35.4,11.46,16.13
2011-03-20 01:00,16.21,2.8,0.80,16.19
2011-03-20 02:00,18.04,9.8,3.08,17.78
2011-03-20 03:00,18.89,23.6,7.55,17.31
2011-03-20 04:00,23.13,43.5,15.93,16.77
2011-03-20 05:00,6.93,350.4,-1.16,6.83
2011-03-20 06:00,19.86,196.2,-5.52,-19.07
2011-03-20 07:00,37.17,218.3,-23.02,-29.19
2011-03-20 08:00,32.73,224.0,-22.72,-23.56
2011-03-20 09:00,35.20,224.5,-24.67,-25.10
2011-03-20 10:00,4.00,320.2,-2.56,3.07
2011-03-20 11:00,2.74,164.0,0.76,-2.64
2011-03-20 12:00,15.16,42.0,10.14,11.27
2011-03-20 13:00,31.57,42.6,21.37,23.23
2011-03-20 14:00,23.14,32.7,12.51,19.47
2011-03-20 15:00,17.94,26.5,8.01,16.05
2011-03-20 16:00,11.95,40.7,7.79,9.06
2011-03-20 17:00,7.35,27.7,3.42,6.51
2011-03-20 18:00,14.22,235.8,-11.77,-7.99
2011-03-20 19:00,27.27,212.7,-14.75,-22.93
2011-03-20 20:00,25.73,227.6,-18.99,-17.35
2011-03-20 21:00,21.43,218.5,-13.34,-16.77
2011-03-20 22:00,11.56,233.4,-9.28,-6.88
2011-03-20 23:00,3.99,70.3,3.76,1.35
2011-03-21 00:00,29.28,49.2,22.18,19.12
2011-03-21 01:00,60.56,44.7,42.57,43.07
2011-03-21 02:00,65.01,44.9,45.92,46.02
2011-03-21 03:00,55.91,45.8,40.08,38.97
2011-03-21 04:00,44.35,46.3,32.08,30.63
2011-03-21 05:00,32.27,51.2,25.17,20.20
2011-03-21 06:00,9.49,59.3,8.16,4.85
2011-03-21 07:00,20.00,219.7,-12.79,-15.38
2011-03-21 08:00,24.63,225.4,-17.53,-17.30
2011-03-21 09:00,23.23,219.7,-14.83,-17.88
2011-03-21 10:00,9.82,24.9,4.14,8.90
2011-03-21 11:00,15.58,52.1,12.29,9.57
2011-03-21 12:00,25.08,50.7,19.39,15.90
2011-03-21 13:00,38.35,54.1,31.06,22.50
2011-03-21 14:00,41.10,50.0,31.47,26.43
2011-03-21 15:00,37.58,45.1,26.63,26.52
2011-03-21 16:00,33.57,36.4,19.90,27.03
2011-03-21 17:00,29.37,57.1,24.65,15.97
2011-03-21 18:00,10.50,48.0,7.80,7.02
2011-03-21 19:00,21.49,254.2,-20.69,-5.84
2011-03-21 20:00,21.15,227.9,-15.69,-14.17
2011-03-21 21:00,24.86,230.7,-19.23,-15.75
2011-03-21 22:00,15.50,237.5,-13.08,-8.32
2011-03-21 23:00,5.95,260.0,-5.86,-1.04
2011-03-22 00:00,7.03,8.9,1.09,6.95
2011-03-22 01:00,21.52,34.5,12.21,17.73
2011-03-22 02:00,34.82,33.3,19.12,29.11
2011-03-22 03:00,39.02,41.8,26.02,29.08
2011-03-22 04:00,31.30,46.5,22.70,21.55
2011-03-22 05:00,11.31,21.0,4.06,10.56
2011-03-22 06:00,4.50,281.3,-4.41,0.88
2011-03-22 07:00,26.71,237.3,-22.47,-14.44
2011-03-22 08:00,39.81,223.1,-27.18,-29.09
2011-03-22 09:00,38.86,220.7,-25.33,-29.47
2011-03-22 10:00,40.34,221.5,-26.71,-30.23
2011-03-22 11:00,25.45,219.3,-16.11,-19.71
2011-03-22 12:00,11.66,227.6,-8.61,-7.87
2011-03-22 13:00,3.34,263.5,-3.31,-0.38
2011-03-22 14:00,15.26,21.9,5.69,14.16
2011-03-22 15:00,22.76,31.3,11.84,19.44
2011-03-22 16:00,15.80,356.4,-0.98,15.77
2011-03-22 17:00,10.84,11.3,2.12,10.63
2011-03-22 18:00,9.84,31.3,5.11,8.41
2011-03-22 19:00,2.09,284.8,-2.03,0.54
2011-03-22 20:00,19.71,219.9,-12.65,-15.12
2011-03-22 21:00,27.68,216.7,-16.55,-22.19
2011-03-22 22:00,30.18,216.2,-17.84,-24.34
2011-03-22 23:00,26.64,218.6,-16.64,-20.81
2011-03-23 00:00,19.14,228.8,-14.40,-12.62
2011-03-23 01:00,3.71,237.4,-3.12,-2.00
2011-03-23 02:00,12.09,49.4,9.18,7.87
2011-03-23 03:00,47.00,33.4,25.85,39.26
2011-03-23 04:00,53.98,37.8,33.07,42.66
2011-03-23 05:00,38.25,36.6,22.80,30.72
2011-03-23 06:00,25.83,39.5,16.41,19.94
2011-03-23 07:00,17.36,30.9,8.93,14.89
2011-03-23 08:00,8.52,246.6,-7.82,-3.38
2011-03-23 09:00,22.86,211.3,-11.88,-19.54
2011-03-23 10:00,17.74,220.1,-11.43,-13.57
2011-03-23 11:00,17.24,211.5,-9.00,-14.70
2011-03-23 12:00,5.35,189.2,-0.85,-5.28
2011-03-23 13:00,5.56,106.9,5.32,-1.62
2011-03-23 14:00,6.87,9.4,1.12,6.78
2011-03-23 15:00,18.40,29.3,8.99,16.05
2011-03-23 16:00,20.22,28.1,9.53,17.84
2011-03-23 17:00,16.78,14.8,4.28,16.22
2011-03-23 18:00,13.92,34.4,7.86,11.49
2011-03-23 19:00,15.21,43.3,10.43,11.07
2011-03-23 20:00,3.12,61.6,2.74,1.48
2011-03-23 21:00,9.17,228.8,-6.89,-6.04
2011-03-23 22:00,15.32,208.8,-7.37,-13.42
2011-03-23 23:00,9.17,152.2,4.27,-8.12
2011-03-24 00:00,7.60,86.1,7.58,0.52
2011-03-24 01:00,9.42,67.8,8.72,3.56
2011-03-24 02:00,0.84,347.5,-0.18,0.82
2011-03-24 03:00,24.77,44.3,17.31,17.73
2011-03-24 04:00,40.12,42.9,27.29,29.40
2011-03-24 05:00,32.73,28.4,15.59,28.78
2011-03-24 06:00,27.34,48.0,20.32,18.30
2011-03-24 07:00,15.10,47.5,11.13,10.21
2011-03-24 08:00,5.60,319.2,-3.66,4.24
2011-03-24 09:00,16.85,238.7,-14.41,-8.74
2011-03-24 10:00,29.33,210.0,-14.65,-25.41
2011-03-24 11:00,30.22,215.1,-17.37,-24.72
2011-03-24 12:00,26.52,226.2,-19.14,-18.35
2011-03-24 13:00,21.82,233.3,-17.49,-13.04
2011-03-24 14:00,16.37,242.6,-14.54,-7.52
2011-03-24 15:00,5.20,295.6,-4.69,2.25
2011-03-24 16:00,9.03,359.5,-0.08,9.03
2011-03-24 17:00,13.77,9.9,2.37,13.57
2011-03-24 18:00,21.82,26.8,9.85,19.47
2011-03-24 19:00,37.24,51.9,29.32,22.96
2011-03-24 20:00,33.90,53.0,27.08,20.40
2011-03-24 21:00,14.59,36.4,8.66,11.74
2011-03-24 22:00,8.72,87.9,8.71,0.33
2011-03-24 23:00,2.25,135.3,1.58,-1.60
2011-03-25 00:00,3.38,198.9,-1.09,-3.19
2011-03-25 01:00,5.73,81.3,5.67,0.87
2011-03-25 02:00,11.19,75.7,10.85,2.76
2011-03-25 03:00,26.72,43.6,18.43,19.35
2011-03-25 04:00,30.20,50.4,23.26,19.27
2011-03-25 05:00,45.33,47.0,33.16,30.91
2011-03-25 06:00,53.52,47.8,39.67,35.93
2011-03-25 07:00,42.78,48.9,32.24,28.12
2011-03-25 08:00,31.52,40.3,20.39,24.03
2011-03-25 09:00,16.53,25.0,6.99,14.98
2011-03-25 10:00,6.22,266.9,-6.21,-0.33
2011-03-25 11:00,13.19,218.8,-8.26,-10.28
2011-03-25 12:00,16.35,197.7,-4.96,-15.58
2011-03-25 13:00,10.39,229.2,-7.87,-6.79
2011-03-25 14:00,7.20,234.9,-5.89,-4.14
2011-03-25 15:00,8.50,16.3,2.39,8.16
2011-03-25 16:00,10.23,16.1,2.84,9.83
2011-03-25 17:00,14.40,4.0,0.99,14.37
2011-03-25 18:00,13.05,17.1,3.83,12.47
2011-03-25 19:00,13.96,16.7,4.01,13.37
2011-03-25 20:00,22.40,35.0,12.83,18.35
2011-03-25 21:00,20.46,64.8,18.52,8.71
2011-03-25 22:00,2.86,107.4,2.73,-0.85
2011-03-25 23:00,5.97,252.9,-5.70,-1.75
2011-03-26 00:00,13.60,225.4,-9.68,-9.55
2011-03-26 01:00,14.62,201.4,-5.34,-13.60
2011-03-26 02:00,4.29,151.6,2.04,-3.77
2011-03-26 03:00,15.76,183.1,-0.86,-15.74
2011-03-26 04:00,5.52,111.5,5.14,-2.02
2011-03-26 05:00,16.87,9.9,2.91,16.62
2011-03-26 06:00,16.81,14.8,4.28,16.26
2011-03-26 07:00,15.22,32.0,8.06,12.91
2011-03-26 08:00,13.34,39.6,8.50,10.28
2011-03-26 09:00,6.34,64.3,5.71,2.75
2011-03-26 10:00,10.34,248.8,-9.64,-3.74
2011-03-26 11:00,16.74,205.6,-7.24,-15.09
2011-03-26 12:00,21.78,212.3,-11.63,-18.42
2011-03-26 13:00,25.47,223.3,-17.45,-18.55
2011-03-26 14:00,29.81,207.6,-13.79,-26.43
2011-03-26 15:00,17.06,213.5,-9.42,-14.22
2011-03-26 16:00,22.63,205.0,-9.57,-20.51
2011-03-26 17:00,9.97,250.0,-9.37,-3.41
2011-03-26 18:00,2.91,134.2,2.09,-2.03
2011-03-26 19:00,13.39,82.6,13.28,1.73
2011-03-26 20:00,15.00,55.4,12.34,8.52
2011-03-26 21:00,12.34,77.8,12.06,2.61
2011-03-26 22:00,0.50,315.6,-0.35,0.36
2011-03-26 23:00,11.10,260.2,-10.94,-1.88
2011-03-27 00:00,19.48,206.9,-8.80,-17.38
2011-03-27 01:00,24.11,213.2,-13.19,-20.19
2011-03-27 02:00,19.21,209.5,-9.46,-16.71
2011-03-27 03:00,11.05,210.5,-5.61,-9.52
2011-03-27 04:00,4.97,165.1,1.28,-4.80
2011-03-27 05:00,0.75,69.2,0.71,0.27
2011-03-27 06:00,10.14,41.6,6.74,7.58
2011-03-27 07:00,20.22,36.4,12.00,16.27
2011-03-27 08:00,21.42,43.3,14.69,15.58
2011-03-27 09:00,10.30,55.0,8.43,5.91
2011-03-27 10:00,8.20,130.2,6.27,-5.29
2011-03-27 11:00,13.38,230.4,-10.31,-8.53
2011-03-27 12:00,17.61,223.3,-12.09,-12.81
2011-03-27 13:00,26.48,206.9,-11.98,-23.61
2011-03-27 14:00,30.06,213.1,-16.41,-25.18
2011-03-27 15:00,20.92,219.1,-13.19,-16.24
2011-03-27 16:00,15.52,207.8,-7.23,-13.74
2011-03-27 17:00,7.64,202.4,-2.91,-7.06
2011-03-27 18:00,4.85,224.7,-3.41,-3.45
2011-03-27 19:00,6.01,334.9,-2.55,5.45
2011-03-27 20:00,8.82,66.7,8.10,3.49
2011-03-27 21:00,6.41,51.3,5.00,4.01
2011-03-27 22:00,3.60,332.8,-1.65,3.20
2011-03-27 23:00,9.76,213.1,-5.33,-8.18
2011-03-28 00:00,15.60,223.2,-10.69,-11.37
2011-03-28 01:00,21.94,216.6,-13.08,-17.62
2011-03-28 02:00,27.30,207.0,-12.38,-24.34
2011-03-28 03:00,24.42,206.7,-10.98,-21.82
2011-03-28 04:00,16.11,200.5,-5.64,-15.09
2011-03-28 05:00,11.32,206.6,-5.07,-10.13
2011-03-28 06:00,7.96,179.4,0.08,-7.96
2011-03-28 07:00,2.50,90.2,2.50,-0.01
2011-03-28 08:00,5.18,56.9,4.34,2.83
2011-03-28 09:00,13.92,43.7,9.62,10.06
2011-03-28 10:00,5.60,82.8,5.56,0.71
2011-03-28 11:00,4.70,58.0,3.98,2.49
2011-03-28 12:00,11.31,199.9,-3.84,-10.64
2011-03-28 13:00,15.43,231.7,-12.12,-9.55
2011-03-28 14:00,24.43,202.3,-9.26,-22.61
2011-03-28 15:00,28.93,207.7,-13.45,-25.61
2011-03-28 16:00,27.95,207.0,-12.69,-24.91
2011-03-28 17:00,16.00,207.2,-7.31,-14.24
2011-03-28 18:00,4.63,189.6,-0.77,-4.56
2011-03-28 19:00,2.04,231.7,-1.60,-1.27
2011-03-28 20:00,3.91,33.2,2.14,3.27
2011-03-28 21:00,2.96,71.7,2.81,0.93
2011-03-28 22:00,4.28,123.0,3.59,-2.33
2011-03-28 23:00,3.61,150.3,1.79,-3.14
2011-03-29 00:00,8.84,223.3,-6.06,-6.43
2011-03-29 01:00,21.51,204.5,-8.93,-19.57
2011-03-29 02:00,26.56,209.6,-13.12,-23.09
2011-03-29 03:00,25.84,218.0,-15.92,-20.35
2011-03-29 04:00,20.50,220.9,-13.42,-15.49
2011-03-29 05:00,20.66,220.1,-13.31,-15.80
2011-03-29 06:00,13.20,209.0,-6.40,-11.54
2011-03-29 07:00,5.23,180.6,-0.05,-5.23
2011-03-29 08:00,3.42,69.3,3.20,1.21
2011-03-29 09:00,10.72,50.0,8.22,6.89
2011-03-29 10:00,10.10,50.0,7.74,6.49
2011-03-29 11:00,6.16,57.7,5.20,3.29
2011-03-29 12:00,3.58,24.5,1.48,3.25
2011-03-29 13:00,6.91,180.5,-0.06,-6.91
2011-03-29 14:00,16.01,192.3,-3.42,-15.64
2011-03-29 15:00,20.09,218.4,-12.48,-15.74
2011-03-29 16:00,26.78,213.1,-14.62,-22.44
2011-03-29 17:00,21.46,219.2,-13.55,-16.63
2011-03-29 18:00,20.18,212.2,-10.75,-17.08
2011-03-29 19:00,7.85,215.8,-4.59,-6.36
2011-03-29 20:00,1.85,80.6,1.83,0.30
2011-03-29 21:00,8.77,51.8,6.89,5.43
2011-03-29 22:00,10.59,45.4,7.54,7.43
2011-03-29 23:00,8.53,49.5,6.49,5.54
2011-03-30 00:00,6.10,60.1,5.29,3.04
2011-03-30 01:00,0.57,263.0,-0.57,-0.07
2011-03-30 02:00,11.21,230.5,-8.65,-7.13
2011-03-30 03:00,19.68,225.6,-14.07,-13.77
2011-03-30 04:00,19.43,234.5,-15.81,-11.29
2011-03-30 05:00,17.53,220.6,-11.40,-13.31
2011-03-30 06:00,15.06,219.1,-9.49,-11.70
2011-03-30 07:00,6.33,225.3,-4.50,-4.45
2011-03-30 08:00,4.78,41.5,3.16,3.58
2011-03-30 09:00,11.34,54.0,9.18,6.66
2011-03-30 10:00,11.16,30.5,5.67,9.61
2011-03-30 11:00,13.50,36.4,8.01,10.86
2011-03-30 12:00,6.28,29.6,3.10,5.46
2011-03-30 13:00,3.41,251.0,-3.22,-1.11
2011-03-30 14:00,8.07,162.5,2.43,-7.69
2011-03-30 15:00,18.64,213.4,-10.26,-15.56
2011-03-30 16:00,20.58,215.8,-12.02,-16.70
2011-03-30 17:00,25.34,225.4,-18.03,-17.81
2011-03-30 18:00,22.31,219.2,-14.12,-17.28
2011-03-30 19:00,17.43,224.2,-12.16,-12.49
2011-03-30 20:00,11.42,208.3,-5.42,-10.05
2011-03-30 21:00,1.09,105.9,1.05,-0.30
2011-03-30 22:00,13.58,43.7,9.38,9.81
2011-03-30 23:00,20.30,50.2,15.60,12.98
2011-03-31 00:00,15.27,53.5,12.28,9.07
2011-03-31 01:00,11.55,53.0,9.22,6.95
2011-03-31 02:00,6.48,49.2,4.91,4.23
2011-03-31 03:00,4.69,145.8,2.63,-3.88
2011-03-31 04:00,11.71,256.3,-11.37,-2.77
2011-03-31 05:00,15.82,217.9,-9.73,-12.48
2011-03-31 06:00,14.16,215.5,-8.23,-11.52
2011-03-31 07:00,11.00,223.1,-7.52,-8.03
2011-03-31 08:00,5.12,246.0,-4.68,-2.09
2011-03-31 09:00,5.46,354.1,-0.56,5.43
2011-03-31 10:00,11.22,48.2,8.37,7.48
2011-03-31 11:00,15.72,49.4,11.93,10.23
2011-03-31 12:00,9.76,37.4,5.92,7.76
2011-03-31 13:00,5.93,25.4,2.54,5.36
2011-03-31 14:00,2.42,344.5,-0.65,2.33
2011-03-31 15:00,7.56,254.5,-7.29,-2.02
2011-03-31 16:00,11.55,227.5,-8.51,-7.81
2011-03-31 17:00,16.19,218.5,-10.08,-12.67
2011-03-31 18:00,22.65,232.2,-17.90,-13.87
2011-03-31 19:00,12.48,222.8,-8.48,-9.16
2011-03-31 20:00,6.86,222.5,-4.63,-5.06
2011-03-31 21:00,4.17,127.7,3.30,-2.55
2011-03-31 22:00,5.69,62.7,5.06,2.61
2011-03-31 23:00,12.75,30.3,6.43,11.01
2011-04-01 00:00,10.18,25.2,4.34,9.21
2011-04-01 01:00,8.95,11.8,1.82,8.76
2011-04-01 02:00,3.89,128.3,3.06,-2.41
2011-04-01 03:00,4.55,290.2,-4.27,1.57
2011-04-01 04:00,5.27,228.7,-3.96,-3.48
2011-04-01 05:00,16.19,228.1,-12.05,-10.82
2011-04-01 06:00,19.96,219.7,-12.74,-15.37
2011-04-01 07:00,17.05,222.6,-11.54,-12.55
2011-04-01 08:00,14.25,227.2,-10.47,-9.68
2011-04-01 09:00,5.01,217.2,-3.03,-3.99
2011-04-01 10:00,3.12,168.9,0.60,-3.06
2011-04-01 11:00,2.22,308.1,-1.75,1.37
2011-04-01 12:00,13.36,29.4,6.57,11.64
2011-04-01 13:00,12.71,30.6,6.47,10.94
2011-04-01 14:00,8.59,18.9,2.78,8.13
2011-04-01 15:00,5.60,203.5,-2.23,-5.14
2011-04-01 16:00,13.63,197.9,-4.19,-12.97
2011-04-01 17:00,25.03,211.4,-13.03,-21.38
2011-04-01 18:00,35.30,215.5,-20.48,-28.75
2011-04-01 19:00,25.08,216.2,-14.80,-20.25
2011-04-01 20:00,21.39,209.5,-10.55,-18.61
2011-04-01 21:00,15.03,193.9,-3.62,-14.58
2011-04-01 22:00,3.60,39.1,2.27,2.79
2011-04-01 23:00,1.69,31.3,0.88,1.44
2011-04-02 00:00,6.90,30.4,3.49,5.95
2011-04-02 01:00,10.20,49.7,7.78,6.59
2011-04-02 02:00,5.92,44.9,4.18,4.20
2011-04-02 03:00,23.37,61.5,20.54,11.15
2011-04-02 04:00,21.09,43.4,14.48,15.34
2011-04-02 05:00,7.81,18.2,2.44,7.42
2011-04-02 06:00,4.89,341.8,-1.53,4.64
2011-04-02 07:00,1.41,31.9,0.75,1.20
2011-04-02 08:00,4.27,319.3,-2.78,3.23
2011-04-02 09:00,1.18,43.0,0.81,0.87
2011-04-02 10:00,23.83,53.5,19.15,14.18
2011-04-02 11:00,26.11,42.4,17.62,19.27
2011-04-02 12:00,39.64,40.7,25.87,30.03
2011-04-02 13:00,40.73,47.3,29.92,27.64
2011-04-02 14:00,33.52,47.5,24.72,22.64
2011-04-02 15:00,28.79,62.3,25.50,13.37
2011-04-02 16:00,16.27,84.0,16.18,1.70
2011-04-02 17:00,4.99,55.1,4.09,2.85
2011-04-02 18:00,6.42,249.0,-5.99,-2.30
2011-04-02 19:00,9.52,174.0,1.00,-9.46
2011-04-02 20:00,6.12,190.7,-1.14,-6.02
2011-04-02 21:00,6.73,187.7,-0.90,-6.67
2011-04-02 22:00,10.25,11.0,1.95,10.06
2011-04-02 23:00,14.50,33.8,8.06,12.05
2011-04-03 00:00,27.97,36.8,16.76,22.39